SCP
0 0 0 0 0 0 0 0 0 0 0 0 0 0 0 0 0 0 0 0 1 1 1 1 0 0 0 0 0 1 1 1 1 1 1 0 0 0 0 0 0 0 0 0
0 0 0 0 0 0 0 0 0 0 0 0 0 0 0 0 0 0 0 0 0 1 1 1 0 0 0 1 1 1 1 1 1 1 1 1 1 0 0 1 0 0 0 0
0 0 0 0 0 0 0 0 0 0 0 0 0 0 0 0 0 0 0 0 1 1 1 1 1 1 1 1 1 1 1 1 1 1 1 1 1 1 1 1 0 0 0 0
0 0 0 0 0 0 0 0 0 0 0 0 0 0 0 0 0 1 1 1 1 1 1 1 1 1 1 1 1 1 1 1 1 1 1 1 1 1 1 1 0 0 0 0
0 0 0 0 0 0 0 0 0 0 0 0 0 0 0 0 0 1 1 1 1 1 1 1 1 1 1 1 1 1 0 1 1 1 1 1 1 1 1 0 0 0 0 0
0 0 0 0 0 0 0 0 0 0 0 0 0 0 0 0 0 1 1 1 1 1 1 1 1 1 1 1 1 0 0 1 1 1 1 1 1 0 0 0 0 0 0 0
0 0 0 0 0 0 0 0 0 0 0 0 0 0 0 0 0 1 1 1 1 1 1 1 1 1 1 1 0 0 0 0 1 1 1 1 1 1 0 0 0 0 0 0
0 0 0 0 0 0 0 0 0 0 0 0 0 0 0 0 0 0 1 0 0 1 1 1 1 1 1 0 0 0 0 0 0 1 0 0 1 1 1 0 0 0 0 0
0 0 0 0 0 0 0 0 0 0 0 0 0 0 0 0 0 0 0 0 0 0 1 0 0 0 0 0 0 0 0 0 0 0 0 0 1 1 1 0 0 0 0 0
0 0 0 0 0 0 0 0 0 0 0 0 0 0 0 0 0 0 0 0 0 0 0 0 0 0 0 0 0 0 0 0 0 0 0 0 0 0 0 0 0 0 0 0
0 0 0 0 0 0 0 0 0 0 0 0 0 0 0 0 0 0 0 0 0 0 0 0 0 0 0 0 0 0 0 0 0 0 0 0 0 0 0 0 0 0 0 0
0 0 0 0 0 0 0 0 0 0 0 0 0 0 0 0 0 0 0 0 0 0 0 0 0 0 0 0 0 0 0 0 0 0 0 0 0 0 0 0 0 0 0 0
0 0 0 0 0 0 0 0 0 0 0 0 0 0 0 0 0 0 0 0 0 0 0 0 0 0 0 0 0 0 0 0 0 0 0 0 0 0 0 0 0 0 0 0
0 0 0 0 0 0 0 0 0 0 0 0 0 0 0 0 0 0 0 0 0 0 0 0 0 0 0 0 0 0 0 0 0 0 0 0 0 0 0 0 0 0 0 0
0 0 0 0 0 0 0 0 0 0 0 0 0 0 0 0 0 0 0 0 0 0 0 0 0 0 0 0 0 0 0 0 0 0 0 0 0 0 0 0 0 0 0 0
0 0 0 0 0 0 0 0 0 0 0 0 0 0 0 0 0 0 0 0 0 0 0 0 0 0 0 0 0 0 0 0 0 0 0 0 0 0 0 0 0 0 0 0
0 0 0 0 0 0 0 0 0 0 0 0 0 0 0 0 0 0 0 0 0 0 0 0 0 0 0 0 0 0 0 0 0 0 0 0 0 0 0 0 0 0 0 0
0 0 0 0 0 0 0 0 0 0 0 0 0 0 0 0 0 0 0 0 0 0 0 0 0 0 0 0 0 0 0 0 0 0 0 0 0 0 0 0 0 0 0 0
0 0 0 0 0 0 0 0 0 0 0 0 0 0 0 0 0 0 0 0 0 0 0 0 0 0 0 0 0 0 0 0 0 0 0 0 0 0 0 0 0 0 0 0
0 0 0 0 0 0 0 0 0 0 0 0 0 0 0 0 0 0 0 0 0 0 0 0 0 0 0 0 0 0 0 0 0 0 0 0 0 0 0 0 0 0 0 0
0 0 0 0 0 0 0 0 0 0 0 0 0 0 0 0 0 0 0 0 0 0 0 0 0 0 0 0 0 0 0 0 0 0 0 0 0 0 0 0 0 0 0 0
0 0 0 0 0 0 0 0 0 0 0 0 0 0 0 0 0 0 0 0 0 0 0 0 0 0 0 0 0 0 0 0 0 0 0 0 0 0 0 0 0 0 0 0
0 0 0 0 0 0 0 0 0 0 0 0 0 0 0 0 0 0 0 0 0 0 0 0 0 0 0 0 0 0 0 0 0 0 0 0 0 0 0 0 0 0 0 0
0 0 0 0 0 0 0 0 0 0 0 0 0 0 0 0 0 0 0 0 0 0 0 0 0 0 0 0 0 0 0 0 0 0 0 0 0 0 0 0 0 0 0 0
0 0 0 0 0 0 0 0 0 0 0 0 0 0 0 0 0 0 0 0 0 0 0 0 0 0 0 0 0 0 0 0 0 0 0 0 0 0 0 0 0 0 0 0
0 0 0 0 0 0 0 0 0 0 0 0 0 0 0 0 0 0 0 0 0 0 0 0 0 0 0 0 0 0 0 0 0 0 0 0 0 0 0 0 0 0 0 0
0 0 0 0 0 0 0 0 0 0 0 0 0 0 0 0 0 0 0 0 0 0 0 0 0 0 0 0 0 0 0 0 0 0 0 0 0 0 0 0 0 0 0 0
Wind_Speed
10 11 10 10 10 11 10 7 7 5 3 2 0 1 3 4 7 6 6 6 5 4 5 4 4 3 3 3 3 3 3 4 4 4 3 3 3 3 2 2 2 1 1 1
10 12 13 12 10 11 8 6 6 4 3 2 3 4 3 3 5 5 4 5 5 4 4 4 4 3 3 3 3 3 2 3 4 4 4 4 3 3 2 2 1 1 0 1
10 11 11 10 7 7 5 4 4 4 2 1 4 4 3 4 3 5 4 4 4 3 3 2 2 2 2 2 3 3 1 2 3 3 3 3 3 3 3 2 1 1 0 1
8 9 11 3 2 1 1 2 3 4 3 1 2 4 5 6 5 4 4 4 4 3 2 2 2 2 2 2 3 3 2 2 2 3 3 3 3 2 2 2 2 1 1 1
7 9 7 3 1 2 2 1 3 2 2 2 2 5 6 6 5 5 4 4 3 2 1 2 2 2 1 2 3 2 3 2 2 3 3 3 3 3 2 2 2 2 2 1
8 8 6 1 3 2 2 2 2 2 1 3 2 2 3 4 4 4 4 3 3 2 2 2 2 2 2 1 2 3 3 3 2 3 3 3 3 2 2 2 2 2 2 1
10 7 3 4 5 3 3 2 2 3 3 3 2 2 2 3 3 4 3 2 3 2 2 1 1 1 1 1 1 2 2 2 2 2 2 3 3 2 2 2 2 3 2 2
5 5 2 6 3 2 3 4 3 3 3 4 4 4 4 3 3 3 3 2 3 2 2 2 2 1 1 1 1 1 1 1 1 2 3 2 3 3 3 3 3 3 3 3
2 2 3 6 6 6 4 3 3 2 2 3 4 4 4 3 3 2 2 2 2 2 2 1 1 1 1 1 1 1 1 1 1 2 2 3 3 4 4 4 4 3 3 3
2 3 3 4 5 5 4 3 2 2 2 3 3 4 3 3 2 2 2 1 1 1 0 0 1 1 1 0 0 1 2 1 2 2 3 3 3 3 4 3 3 2 2 1
1 2 2 4 4 4 4 3 2 3 3 3 3 3 3 2 1 1 1 1 1 0 0 0 0 1 1 0 1 2 2 2 2 3 3 3 3 2 2 1 2 2 2 1
1 2 1 2 3 3 3 3 3 2 2 3 2 2 3 2 1 1 1 1 1 0 0 0 0 0 0 0 1 1 2 2 2 2 2 2 3 2 0 1 2 2 2 2
2 2 2 2 3 3 3 3 3 2 1 2 1 2 2 1 1 1 0 1 1 0 0 0 0 0 0 0 1 2 3 3 2 2 2 2 2 2 2 1 1 1 2 4
3 3 3 3 3 3 3 3 2 2 2 2 2 2 1 1 0 0 1 1 1 0 0 0 1 0 1 1 1 2 3 3 3 3 2 2 3 3 3 3 3 2 2 3
2 2 1 2 2 2 3 3 3 3 3 3 2 2 1 1 0 0 0 1 1 0 0 1 1 1 1 1 1 2 3 2 2 2 2 3 3 3 3 3 2 3 2 2
1 1 1 1 2 2 3 3 3 3 3 3 3 2 2 1 1 1 0 0 0 1 1 1 1 1 1 1 1 2 2 3 3 3 3 2 2 2 2 1 1 2 2 3
1 1 1 2 2 2 2 2 2 2 3 3 3 2 1 1 1 1 1 0 0 1 1 0 0 1 1 1 2 2 3 3 3 3 2 2 2 2 1 1 1 1 2 3
1 1 1 2 2 3 3 3 4 4 3 3 3 2 2 2 2 2 2 2 1 1 1 1 1 1 2 1 2 3 3 3 3 2 2 2 2 2 2 1 1 1 1 3
2 2 3 3 4 4 5 5 4 3 3 3 2 3 3 3 3 3 2 1 1 1 1 2 1 2 2 2 3 4 4 3 2 2 1 1 3 2 1 1 1 1 1 2
3 3 2 2 3 4 4 4 4 4 4 4 3 3 3 4 4 3 2 2 2 2 2 2 2 3 2 1 3 5 4 3 2 1 2 1 1 1 1 1 1 1 1 1
4 3 3 3 3 3 3 3 4 4 3 4 4 3 3 4 3 2 2 2 2 3 3 1 1 2 3 4 5 5 3 2 2 2 2 1 1 1 1 1 1 1 1 1
3 3 3 3 3 3 3 4 4 4 3 2 3 3 3 3 2 2 2 2 2 3 2 2 2 2 4 6 4 4 3 2 2 2 1 1 1 1 1 1 0 1 1 1
3 3 3 3 3 3 3 3 4 4 3 3 3 3 4 3 3 2 2 2 2 2 2 2 2 3 6 5 4 3 3 3 3 1 1 1 1 1 0 0 0 0 0 0
3 3 3 3 3 3 3 4 4 4 3 3 2 2 3 3 2 2 2 1 1 1 3 2 2 4 6 4 4 3 3 2 2 2 2 1 0 0 0 1 1 1 1 1
3 3 3 3 3 3 3 3 3 3 3 2 3 3 2 2 2 2 2 2 1 2 3 3 5 6 5 3 3 3 2 2 2 3 2 2 2 2 2 1 1 1 1 1
2 2 2 2 2 3 3 3 3 3 2 2 3 3 3 3 3 2 2 3 3 2 3 3 2 3 3 2 2 2 2 2 2 2 2 3 3 3 3 3 3 2 2 2
2 2 1 2 2 2 3 3 3 3 3 3 4 4 4 3 3 3 4 4 3 3 3 3 3 2 2 2 2 2 2 2 2 2 2 2 2 2 2 3 2 2 2 2
Wind_Direction
265 272 265 250 250 253 257 256 249 234 240 237 211 88 102 117 126 124 124 121 126 131 128 128 135 167 166 144 143 147 154 155 150 151 152 150 148 154 157 156 157 147 138 129
266 263 261 258 241 242 244 240 232 219 236 188 119 90 72 93 116 117 124 129 135 138 130 140 157 179 153 145 139 133 145 155 149 155 157 160 166 166 153 146 139 139 145 78
261 260 260 255 262 255 253 254 231 240 219 114 109 101 96 91 104 117 122 119 123 126 127 144 154 158 139 128 128 129 150 159 157 160 163 166 172 159 163 158 149 155 173 111
263 261 254 256 275 212 208 30 64 103 115 74 91 110 103 104 96 86 101 98 91 100 100 130 151 137 137 143 140 145 164 194 181 174 167 162 166 162 165 168 180 192 204 179
259 254 248 221 247 261 236 174 55 81 116 111 110 106 92 73 78 86 87 86 90 103 105 128 131 125 130 152 160 171 191 196 192 182 174 178 175 176 175 177 184 206 212 203
250 252 255 301 328 292 230 178 77 75 103 113 90 127 100 65 74 76 80 86 85 92 86 105 122 128 146 172 190 204 209 207 196 196 184 180 177 177 182 182 194 210 216 199
246 248 257 340 323 284 229 117 44 55 59 82 90 85 102 90 87 89 88 96 98 102 108 107 112 106 150 193 223 235 221 217 204 203 196 174 173 180 193 201 206 206 207 209
255 247 263 359 8 44 72 69 71 59 65 80 91 103 107 90 78 87 91 83 81 79 102 116 128 129 196 263 295 278 257 231 206 204 218 189 178 188 196 202 215 211 207 210
0 64 45 34 71 87 92 85 85 85 65 88 109 110 101 91 79 74 77 73 73 83 96 104 132 150 186 234 300 295 287 256 227 233 227 199 193 194 200 201 216 219 209 206
66 70 69 55 65 75 72 69 69 77 80 96 101 113 110 95 75 62 61 80 88 100 118 94 147 178 221 238 295 291 284 271 249 234 227 208 210 209 209 207 212 222 221 200
92 63 59 63 51 56 60 57 50 53 57 70 82 89 97 103 97 77 49 68 73 75 70 48 201 178 173 229 293 292 284 268 256 245 223 200 211 231 229 226 214 208 217 212
20 30 357 43 40 39 48 40 33 29 54 79 68 80 79 67 60 70 31 56 45 345 288 288 239 203 240 232 260 286 273 264 262 259 233 200 197 198 184 205 176 176 185 197
37 25 57 47 31 28 35 39 41 14 31 73 73 85 85 61 16 9 72 103 82 58 144 291 262 274 335 325 281 281 282 273 260 262 249 221 213 207 205 202 181 186 209 205
40 38 48 33 27 14 20 31 45 30 36 56 57 77 85 68 15 13 47 22 12 348 69 334 267 302 2 356 315 287 277 268 265 256 248 236 227 224 218 208 196 197 207 201
23 39 33 3 21 33 30 28 32 31 31 34 44 52 77 53 329 43 22 313 324 340 16 318 302 356 333 311 296 286 275 277 276 276 262 247 242 240 229 221 199 177 164 162
18 42 45 46 41 36 32 29 24 20 17 21 25 31 21 0 28 2 319 288 327 333 347 318 337 348 310 299 283 271 265 256 255 258 258 253 249 250 252 234 193 178 170 155
32 17 30 42 26 18 23 23 10 17 15 16 8 9 8 32 33 341 311 304 295 307 329 336 354 315 285 294 280 268 266 258 254 254 254 252 246 253 261 250 229 201 173 159
31 360 8 24 352 359 18 26 29 21 5 356 355 14 23 24 1 344 341 334 340 20 29 20 17 298 285 280 288 276 268 251 239 253 256 247 245 246 247 245 240 189 174 169
352 28 29 20 21 26 21 20 15 2 347 350 4 20 9 358 355 351 350 351 3 22 28 20 327 281 288 291 294 273 262 255 252 252 261 228 224 226 246 261 258 247 226 178
26 35 36 26 25 26 28 15 0 352 350 2 18 15 5 354 351 356 16 17 19 4 352 346 316 304 297 316 306 278 269 263 250 231 231 226 221 219 223 231 234 238 267 242
17 24 19 23 25 16 13 0 343 341 358 7 6 356 355 352 349 4 10 14 36 10 338 339 336 335 339 334 292 277 276 279 265 244 238 209 176 242 247 221 207 214 227 238
2 8 8 12 20 19 14 359 345 339 346 353 350 349 346 345 347 8 25 13 23 17 341 349 6 19 338 313 290 291 290 277 265 249 227 198 182 190 215 236 237 221 227 287
356 0 3 4 12 11 4 352 340 329 335 344 350 351 344 341 339 344 3 15 4 10 332 345 356 329 315 298 297 303 303 295 284 269 247 179 167 179 164 167 246 145 119 127
11 12 3 359 358 352 354 347 339 333 334 336 335 331 329 331 339 353 8 43 19 328 314 328 283 290 288 283 301 307 305 304 327 342 347 5 56 103 109 106 91 84 64 51
12 6 2 356 344 336 340 334 323 319 322 338 343 347 349 345 341 350 346 345 0 305 299 279 248 255 264 285 295 307 337 6 358 343 348 5 15 22 34 44 47 53 47 52
11 349 347 336 341 338 337 335 334 347 351 351 348 358 359 354 347 340 328 328 330 309 299 311 298 249 265 285 307 331 335 341 1 7 15 14 12 15 26 23 27 39 46 41
0 4 350 339 354 351 344 341 338 345 354 353 352 355 347 342 340 339 336 328 332 328 325 325 328 331 326 330 346 354 358 6 15 11 7 11 9 6 22 29 15 20 33 40